TimeEDT,TemperatureF,Dew PointF,Humidity,Sea Level PressureIn,VisibilityMPH,Wind Direction,Wind SpeedMPH,Gust SpeedMPH,PrecipitationIn,Events,Conditions,WindDirDegrees,DateUTC
12:15 AM,38.1,22.8,54,30.19,10.0,Calm,Calm,-,N/A,,Clear,0,2013-03-15 04:15:00
12:35 AM,39.0,22.1,51,30.19,10.0,Calm,Calm,-,N/A,,Clear,0,2013-03-15 04:35:00
12:55 AM,39.2,20.8,48,30.20,10.0,Calm,Calm,-,N/A,,Clear,0,2013-03-15 04:55:00
1:15 AM,37.4,23.4,57,30.19,10.0,Calm,Calm,-,N/A,,Clear,0,2013-03-15 05:15:00
1:35 AM,37.6,21.4,52,30.18,10.0,Calm,Calm,-,N/A,,Clear,0,2013-03-15 05:35:00
1:55 AM,38.7,22.8,53,30.18,10.0,Calm,Calm,-,N/A,,Clear,0,2013-03-15 05:55:00
2:15 AM,37.9,23.7,57,30.18,10.0,Calm,Calm,-,N/A,,Clear,0,2013-03-15 06:15:00
2:35 AM,37.6,24.3,59,30.17,10.0,Calm,Calm,-,N/A,,Clear,0,2013-03-15 06:35:00
2:55 AM,36.7,25.5,64,30.16,10.0,NW,6.9,-,N/A,,Clear,320,2013-03-15 06:55:00
3:15 AM,37.6,23.9,58,30.15,10.0,NW,5.8,-,N/A,,Clear,310,2013-03-15 07:15:00
3:35 AM,37.2,23.2,57,30.15,10.0,Calm,Calm,-,N/A,,Clear,0,2013-03-15 07:35:00
3:55 AM,36.0,22.3,58,30.15,10.0,Calm,Calm,-,N/A,,Clear,0,2013-03-15 07:55:00
4:15 AM,33.6,22.6,64,30.15,10.0,NW,5.8,-,N/A,,Clear,310,2013-03-15 08:15:00
4:35 AM,35.4,21.2,56,30.15,10.0,NNW,3.5,-,N/A,,Clear,330,2013-03-15 08:35:00
4:55 AM,34.0,21.9,61,30.15,10.0,Calm,Calm,-,N/A,,Clear,0,2013-03-15 08:55:00
5:15 AM,33.3,22.1,64,30.15,10.0,Calm,Calm,-,N/A,,Clear,0,2013-03-15 09:15:00
5:35 AM,32.0,22.6,68,30.15,10.0,Calm,Calm,-,N/A,,Clear,0,2013-03-15 09:35:00
5:55 AM,31.3,23.7,74,30.15,10.0,Calm,Calm,-,N/A,,Clear,0,2013-03-15 09:55:00
6:15 AM,31.5,23.4,72,30.15,10.0,Calm,Calm,-,N/A,,Clear,0,2013-03-15 10:15:00
6:35 AM,31.3,23.4,72,30.15,10.0,Calm,Calm,-,N/A,,Clear,0,2013-03-15 10:35:00
6:55 AM,31.1,23.5,74,30.15,10.0,Calm,Calm,-,N/A,,Clear,0,2013-03-15 10:55:00
7:15 AM,30.6,23.0,74,30.15,10.0,Calm,Calm,-,N/A,,Clear,0,2013-03-15 11:15:00
7:35 AM,30.0,24.1,79,30.15,10.0,Calm,Calm,-,N/A,,Clear,0,2013-03-15 11:35:00
7:55 AM,30.0,24.4,80,30.17,10.0,Calm,Calm,-,N/A,,Clear,0,2013-03-15 11:55:00
8:15 AM,31.8,23.7,72,30.17,10.0,Calm,Calm,-,N/A,,Clear,0,2013-03-15 12:15:00
8:35 AM,32.2,25.5,76,30.17,10.0,Calm,Calm,-,N/A,,Clear,0,2013-03-15 12:35:00
8:55 AM,39.4,24.3,55,30.16,10.0,Calm,Calm,-,N/A,,Clear,0,2013-03-15 12:55:00
9:15 AM,43.5,22.3,43,30.16,10.0,Calm,Calm,-,N/A,,Clear,0,2013-03-15 13:15:00
9:35 AM,45.5,21.9,39,30.15,10.0,Calm,Calm,-,N/A,,Clear,0,2013-03-15 13:35:00
9:55 AM,47.7,21.4,35,30.15,10.0,WSW,4.6,-,N/A,,Clear,240,2013-03-15 13:55:00
10:15 AM,49.3,21.0,33,30.14,10.0,WSW,8.1,-,N/A,,Clear,250,2013-03-15 14:15:00
10:35 AM,50.5,21.2,32,30.13,10.0,WSW,4.6,-,N/A,,Clear,240,2013-03-15 14:35:00
10:55 AM,52.2,23.0,32,30.13,10.0,SW,9.2,-,N/A,,Scattered Clouds,230,2013-03-15 14:55:00
11:55 AM,54.7,25.9,33,30.09,10.0,SSW,9.2,16.1,N/A,,Clear,210,2013-03-15 15:55:00
12:15 PM,56.1,26.2,32,30.09,10.0,SSW,10.4,16.1,N/A,,Clear,210,2013-03-15 16:15:00
12:35 PM,57.6,28.0,32,30.08,10.0,SW,10.4,-,N/A,,Clear,220,2013-03-15 16:35:00
12:55 PM,59.4,29.3,32,30.07,10.0,SW,6.9,-,N/A,,Clear,230,2013-03-15 16:55:00
1:15 PM,60.4,30.9,33,30.05,10.0,SW,6.9,16.1,N/A,,Clear,220,2013-03-15 17:15:00
1:35 PM,61.5,30.6,31,30.04,10.0,SW,11.5,16.1,N/A,,Clear,220,2013-03-15 17:35:00
1:55 PM,62.4,31.1,31,30.03,10.0,SW,6.9,-,N/A,,Clear,220,2013-03-15 17:55:00
2:15 PM,62.6,31.3,31,30.01,10.0,SW,8.1,21.9,N/A,,Clear,230,2013-03-15 18:15:00
2:35 PM,62.8,31.5,31,30.00,10.0,SW,8.1,16.1,N/A,,Clear,220,2013-03-15 18:35:00
2:55 PM,64.2,32.0,30,29.98,10.0,SW,9.2,-,N/A,,Clear,220,2013-03-15 18:55:00
3:15 PM,63.9,31.8,30,29.96,10.0,WSW,10.4,18.4,N/A,,Clear,240,2013-03-15 19:15:00
3:35 PM,65.1,32.4,29,29.95,10.0,SSW,5.8,-,N/A,,Clear,210,2013-03-15 19:35:00
3:55 PM,65.3,32.2,29,29.94,10.0,SW,9.2,17.3,N/A,,Clear,230,2013-03-15 19:55:00
4:15 PM,65.5,32.5,29,29.93,10.0,SW,4.6,16.1,N/A,,Clear,220,2013-03-15 20:15:00
4:35 PM,65.7,32.9,30,29.92,10.0,WSW,10.4,-,N/A,,Clear,240,2013-03-15 20:35:00
4:55 PM,66.4,32.7,29,29.92,10.0,WSW,10.4,18.4,N/A,,Clear,240,2013-03-15 20:55:00
5:15 PM,66.4,32.9,29,29.92,10.0,WSW,8.1,16.1,N/A,,Clear,250,2013-03-15 21:15:00
5:35 PM,65.7,33.4,30,29.91,10.0,West,9.2,18.4,N/A,,Clear,260,2013-03-15 21:35:00
5:55 PM,65.8,33.3,30,29.91,10.0,WSW,9.2,-,N/A,,Clear,240,2013-03-15 21:55:00
6:15 PM,64.8,33.4,31,29.90,10.0,SW,5.8,-,N/A,,Clear,230,2013-03-15 22:15:00
6:35 PM,63.5,34.2,33,29.91,10.0,SW,3.5,-,N/A,,Clear,230,2013-03-15 22:35:00
6:55 PM,61.7,34.5,36,29.91,10.0,Calm,Calm,-,N/A,,Clear,0,2013-03-15 22:55:00
7:15 PM,61.0,34.9,38,29.91,10.0,Calm,Calm,-,N/A,,Clear,0,2013-03-15 23:15:00
7:35 PM,57.4,36.7,46,29.91,10.0,Calm,Calm,-,N/A,,Clear,0,2013-03-15 23:35:00
7:55 PM,53.2,37.8,56,29.91,10.0,Calm,Calm,-,N/A,,Clear,0,2013-03-15 23:55:00
8:15 PM,50.9,38.7,63,29.91,10.0,Calm,Calm,-,N/A,,Clear,0,2013-03-16 00:15:00
8:35 PM,50.2,38.3,64,29.91,10.0,Calm,Calm,-,N/A,,Clear,0,2013-03-16 00:35:00
8:55 PM,50.2,37.8,62,29.91,10.0,Calm,Calm,-,N/A,,Clear,0,2013-03-16 00:55:00
9:15 PM,50.9,37.4,60,29.91,10.0,Calm,Calm,-,N/A,,Clear,0,2013-03-16 01:15:00
9:35 PM,50.5,37.0,60,29.91,10.0,Calm,Calm,-,N/A,,Clear,0,2013-03-16 01:35:00
9:55 PM,47.7,37.0,67,29.91,10.0,Calm,Calm,-,N/A,,Clear,0,2013-03-16 01:55:00
10:15 PM,46.6,36.9,69,29.91,10.0,Calm,Calm,-,N/A,,Clear,0,2013-03-16 02:15:00
10:35 PM,46.4,36.9,69,29.90,10.0,Calm,Calm,-,N/A,,Clear,0,2013-03-16 02:35:00
10:55 PM,46.0,37.2,71,29.90,10.0,Calm,Calm,-,N/A,,Clear,0,2013-03-16 02:55:00
11:15 PM,44.8,37.4,75,29.90,10.0,Calm,Calm,-,N/A,,Clear,0,2013-03-16 03:15:00
11:35 PM,43.9,37.0,77,29.90,10.0,Calm,Calm,-,N/A,,Clear,0,2013-03-16 03:35:00
11:55 PM,43.0,36.9,79,29.90,10.0,Calm,Calm,-,N/A,,Clear,0,2013-03-16 03:55:00